AFR003 KJFK-LFPG

Flight info

Callsign AFR003
Flight time 6h 38m
Altitude 35000
Route GREKI DCT JUDDS DCT MARTN DCT EBONY N567B TUDEP/M083F360 DCT 52N050W 54N040W 55N030W 55N020W DCT DOGAL DCT BEXET/N0475F370 DCT MORAG DCT NUCHU L18 MID/N0458F290 Y803 SFD UM605 BIBAX
Aircraft B77W/H-SDE2E3FGHIJ3J5M1P2RWXYZ/LB1D1

Departure

Time 2026-05-08 12:32
Airport John F. Kennedy International Airport (KJFK)

Arrival

Time 2026-05-08 19:11
Airport Charles de Gaulle International Airport (LFPG)
Time Latitude Longitude Altitude Speed Heading
2026-05-08 11:41 40.64176 -73.79318 29 ft 0 kts 108°
2026-05-08 12:21 40.64179 -73.79330 29 ft 4 kts 108°
2026-05-08 12:21 40.64186 -73.79359 29 ft 2 kts 108°
2026-05-08 12:21 40.64197 -73.79384 28 ft 4 kts 158°
2026-05-08 12:21 40.64221 -73.79392 28 ft 4 kts 170°
2026-05-08 12:22 40.64245 -73.79388 28 ft 4 kts 215°
2026-05-08 12:22 40.64257 -73.79376 26 ft 0 kts 224°
2026-05-08 12:22 40.64247 -73.79390 28 ft 0 kts 227°
2026-05-08 12:25 40.64245 -73.79392 29 ft 2 kts 227°
2026-05-08 12:26 40.64226 -73.79424 29 ft 7 kts 237°
2026-05-08 12:26 40.64182 -73.79493 29 ft 12 kts 205°
2026-05-08 12:26 40.64079 -73.79481 27 ft 18 kts 149°
2026-05-08 12:26 40.64003 -73.79354 27 ft 18 kts 120°
2026-05-08 12:27 40.63940 -73.79211 30 ft 18 kts 120°
2026-05-08 12:27 40.63875 -73.79068 28 ft 18 kts 121°
2026-05-08 12:27 40.63811 -73.78925 29 ft 18 kts 121°
2026-05-08 12:27 40.63746 -73.78784 33 ft 18 kts 121°
2026-05-08 12:28 40.63681 -73.78641 32 ft 18 kts 120°
2026-05-08 12:28 40.63616 -73.78497 34 ft 18 kts 121°
2026-05-08 12:28 40.63552 -73.78353 31 ft 18 kts 121°
2026-05-08 12:28 40.63486 -73.78211 30 ft 18 kts 121°
2026-05-08 12:29 40.63421 -73.78067 29 ft 18 kts 119°
2026-05-08 12:29 40.63359 -73.77922 29 ft 18 kts 119°
2026-05-08 12:29 40.63295 -73.77777 32 ft 18 kts 120°
2026-05-08 12:29 40.63229 -73.77634 33 ft 18 kts 120°
2026-05-08 12:30 40.63165 -73.77491 35 ft 18 kts 121°
2026-05-08 12:30 40.63101 -73.77346 32 ft 18 kts 120°
2026-05-08 12:30 40.63042 -73.77288 32 ft 9 kts 196°
2026-05-08 12:30 40.62983 -73.77330 33 ft 10 kts 212°
2026-05-08 12:31 40.62927 -73.77377 32 ft 10 kts 216°
2026-05-08 12:31 40.62922 -73.77455 33 ft 10 kts 301°
2026-05-08 12:31 40.62928 -73.77467 32 ft 0 kts 303°
2026-05-08 12:31 40.63006 -73.77634 35 ft 57 kts 301°
2026-05-08 12:32 40.63348 -73.78389 27 ft 132 kts 301°
2026-05-08 12:32 40.63922 -73.79660 118 ft 178 kts 301°
2026-05-08 12:32 40.64534 -73.81018 1038 ft 169 kts 302°
2026-05-08 12:32 40.65178 -73.82346 1842 ft 175 kts 302°
2026-05-08 12:33 40.65658 -73.83813 2004 ft 197 kts 275°
2026-05-08 12:33 40.65268 -73.85645 2196 ft 230 kts 236°
2026-05-08 12:33 40.63966 -73.87038 2470 ft 253 kts 216°
2026-05-08 12:33 40.62481 -73.88338 3096 ft 259 kts 218°
2026-05-08 12:34 40.60949 -73.89613 3745 ft 265 kts 206°
2026-05-08 12:34 40.59104 -73.90030 4417 ft 277 kts 177°
2026-05-08 12:34 40.57224 -73.89448 5169 ft 280 kts 165°
2026-05-08 12:34 40.55360 -73.88584 5804 ft 285 kts 156°
2026-05-08 12:35 40.53840 -73.86919 6294 ft 296 kts 122°
2026-05-08 12:35 40.53189 -73.84378 6915 ft 295 kts 88°
2026-05-08 12:35 40.53621 -73.81809 7526 ft 287 kts 54°
2026-05-08 12:35 40.54945 -73.79976 8137 ft 274 kts 26°
2026-05-08 12:36 40.56600 -73.78735 8712 ft 275 kts 22°
2026-05-08 12:36 40.58320 -73.77628 9350 ft 275 kts 15°
2026-05-08 12:36 40.60096 -73.76710 10075 ft 274 kts 13°
2026-05-08 12:36 40.61912 -73.75823 10528 ft 287 kts 13°
2026-05-08 12:37 40.63861 -73.74885 10690 ft 310 kts 13°
2026-05-08 12:37 40.65957 -73.73866 10875 ft 332 kts 14°
2026-05-08 12:37 40.67423 -73.73144 10991 ft 348 kts 14°
2026-05-08 12:37 40.69742 -73.71986 11422 ft 362 kts 15°
2026-05-08 12:38 40.72139 -73.70772 12045 ft 373 kts 15°
2026-05-08 12:38 40.75382 -73.69111 13125 ft 381 kts 15°
2026-05-08 12:38 40.77062 -73.68248 13671 ft 385 kts 15°
2026-05-08 12:38 40.79582 -73.66952 14366 ft 392 kts 15°
2026-05-08 12:39 40.82149 -73.65632 15146 ft 397 kts 14°
2026-05-08 12:39 40.84738 -73.64298 15894 ft 402 kts 14°
2026-05-08 12:39 40.87367 -73.62945 16620 ft 408 kts 14°
2026-05-08 12:39 40.89998 -73.61589 17357 ft 414 kts 14°
2026-05-08 12:40 40.92694 -73.60199 18107 ft 419 kts 14°
2026-05-08 12:40 40.95428 -73.58789 18763 ft 424 kts 13°
2026-05-08 12:40 40.98190 -73.57362 19420 ft 428 kts 13°
2026-05-08 12:40 41.00974 -73.55922 20074 ft 432 kts 13°
2026-05-08 12:41 41.03791 -73.54464 20730 ft 436 kts 13°
2026-05-08 12:41 41.06636 -73.52991 21350 ft 441 kts 13°
2026-05-08 12:41 41.09511 -73.51501 21950 ft 445 kts 13°
2026-05-08 12:41 41.12412 -73.49996 22558 ft 450 kts 12°
2026-05-08 12:42 41.15341 -73.48475 23156 ft 454 kts 12°
2026-05-08 12:42 41.18301 -73.46936 23702 ft 459 kts 12°
2026-05-08 12:42 41.21285 -73.45382 24217 ft 463 kts 12°
2026-05-08 12:42 41.24300 -73.43812 24664 ft 468 kts 12°
2026-05-08 12:43 41.27344 -73.42225 25101 ft 472 kts 12°
2026-05-08 12:43 41.30418 -73.40620 25593 ft 476 kts 12°
2026-05-08 12:43 41.33505 -73.39004 26056 ft 479 kts 11°
2026-05-08 12:43 41.36621 -73.37372 26501 ft 483 kts 11°
2026-05-08 12:44 41.39717 -73.35751 26969 ft 486 kts 11°
2026-05-08 12:44 41.42877 -73.34093 27402 ft 490 kts 12°
2026-05-08 12:44 41.46008 -73.32140 27796 ft 504 kts 20°
2026-05-08 12:44 41.49008 -73.29613 28217 ft 517 kts 27°
2026-05-08 12:45 41.51849 -73.26581 28577 ft 530 kts 35°
2026-05-08 12:45 41.54464 -73.23044 28923 ft 539 kts 39°
2026-05-08 12:45 41.57048 -73.19403 29234 ft 541 kts 38°
2026-05-08 12:45 41.59741 -73.15906 29528 ft 533 kts 30°
2026-05-08 12:46 41.62834 -73.13399 29783 ft 510 kts 11°
2026-05-08 12:46 41.66156 -73.12110 30242 ft 488 kts 359°
2026-05-08 12:46 41.69469 -73.11701 30671 ft 469 kts 348°
2026-05-08 12:46 41.72647 -73.12125 30937 ft 456 kts 341°
2026-05-08 12:47 41.75800 -73.12740 31139 ft 459 kts 341°
2026-05-08 12:47 41.78969 -73.13339 31469 ft 460 kts 342°
2026-05-08 12:47 41.82106 -73.13911 31807 ft 461 kts 342°
2026-05-08 12:47 41.85282 -73.14471 32190 ft 460 kts 343°
2026-05-08 12:48 41.88460 -73.15019 32566 ft 460 kts 343°
2026-05-08 12:48 41.91631 -73.15561 32924 ft 460 kts 343°
2026-05-08 12:48 41.94806 -73.16101 33248 ft 460 kts 343°
2026-05-08 12:48 41.97982 -73.16641 33592 ft 460 kts 343°
2026-05-08 12:49 42.01161 -73.17183 33888 ft 460 kts 343°
2026-05-08 12:49 42.04351 -73.17728 34142 ft 460 kts 343°
2026-05-08 12:49 42.07532 -73.18272 34363 ft 461 kts 343°
2026-05-08 12:49 42.10717 -73.18818 34548 ft 463 kts 343°
2026-05-08 12:50 42.13919 -73.19368 34759 ft 464 kts 343°
2026-05-08 12:50 42.17134 -73.19922 34834 ft 468 kts 343°
2026-05-08 12:50 42.23570 -73.21029 34919 ft 468 kts 344°
2026-05-08 12:51 42.33191 -73.22678 34939 ft 463 kts 344°
2026-05-08 12:52 42.39578 -73.23785 34983 ft 463 kts 344°
2026-05-08 12:52 42.49197 -73.25455 34938 ft 465 kts 344°
2026-05-08 12:53 42.52433 -73.25786 34923 ft 474 kts 355°
2026-05-08 12:53 42.55742 -73.24915 34925 ft 496 kts 13°
2026-05-08 12:53 42.58850 -73.22692 34984 ft 517 kts 30°
2026-05-08 12:53 42.61519 -73.19318 34950 ft 534 kts 47°
2026-05-08 12:54 42.65310 -73.10617 34932 ft 542 kts 57°
2026-05-08 12:54 42.68897 -73.01558 34926 ft 546 kts 57°
2026-05-08 12:55 42.72571 -72.92492 34925 ft 547 kts 57°
2026-05-08 12:55 42.76311 -72.83471 34929 ft 547 kts 56°
2026-05-08 12:56 42.80055 -72.74484 34913 ft 543 kts 56°
2026-05-08 12:56 42.83762 -72.65547 34900 ft 540 kts 56°
2026-05-08 12:57 42.87416 -72.56696 34897 ft 537 kts 57°
2026-05-08 12:57 42.91065 -72.47821 34931 ft 536 kts 57°
2026-05-08 12:58 42.94699 -72.38956 34932 ft 534 kts 57°
2026-05-08 12:58 42.98319 -72.30101 34932 ft 534 kts 57°
2026-05-08 12:59 43.01934 -72.21231 34926 ft 534 kts 57°
2026-05-08 12:59 43.05548 -72.12337 34908 ft 535 kts 58°
2026-05-08 13:00 43.09140 -72.03468 34892 ft 536 kts 58°
2026-05-08 13:00 43.12752 -71.94520 34892 ft 537 kts 58°
2026-05-08 13:01 43.16357 -71.85562 34900 ft 537 kts 58°
2026-05-08 13:01 43.19963 -71.76576 34894 ft 537 kts 58°
2026-05-08 13:02 43.23560 -71.67580 34896 ft 537 kts 58°
2026-05-08 13:02 43.27123 -71.58644 34896 ft 537 kts 58°
2026-05-08 13:03 43.30699 -71.49647 34885 ft 536 kts 58°
2026-05-08 13:03 43.34265 -71.40648 34892 ft 536 kts 59°
2026-05-08 13:04 43.37819 -71.31648 34878 ft 536 kts 59°
2026-05-08 13:04 43.41368 -71.22635 34875 ft 536 kts 59°
2026-05-08 13:05 43.44917 -71.13592 34882 ft 537 kts 59°
2026-05-08 13:05 43.48455 -71.04550 34869 ft 536 kts 59°
2026-05-08 13:06 43.51982 -70.95506 34872 ft 535 kts 59°
2026-05-08 13:06 43.55475 -70.86519 34873 ft 535 kts 59°
2026-05-08 13:07 43.58981 -70.77473 34882 ft 534 kts 59°
2026-05-08 13:07 43.62472 -70.68436 34846 ft 533 kts 60°
2026-05-08 13:08 43.65955 -70.59389 34850 ft 532 kts 60°
2026-05-08 13:08 43.69418 -70.50364 34862 ft 531 kts 60°
2026-05-08 13:09 43.72868 -70.41347 34862 ft 530 kts 60°
2026-05-08 13:09 43.76310 -70.32321 34855 ft 530 kts 60°
2026-05-08 13:10 43.79746 -70.23282 34864 ft 530 kts 60°
2026-05-08 13:10 43.83148 -70.14306 34873 ft 529 kts 60°
2026-05-08 13:11 43.86561 -70.05270 34884 ft 529 kts 61°
2026-05-08 13:11 43.89968 -69.96218 34880 ft 529 kts 61°
2026-05-08 13:12 43.93367 -69.87159 34881 ft 529 kts 61°
2026-05-08 13:12 43.96760 -69.78088 34881 ft 529 kts 61°
2026-05-08 13:13 44.00148 -69.69003 34866 ft 529 kts 61°
2026-05-08 13:13 44.03527 -69.59908 34848 ft 530 kts 62°
2026-05-08 13:14 44.06898 -69.50806 34854 ft 530 kts 62°
2026-05-08 13:14 44.10268 -69.41678 34867 ft 531 kts 62°
2026-05-08 13:15 44.13635 -69.32526 34855 ft 531 kts 62°
2026-05-08 13:15 44.16982 -69.23400 34842 ft 531 kts 62°
2026-05-08 13:16 44.20337 -69.14220 34847 ft 531 kts 62°
2026-05-08 13:16 44.23691 -69.05014 34831 ft 531 kts 63°
2026-05-08 13:17 44.27028 -68.95824 34838 ft 531 kts 63°
2026-05-08 13:17 44.30341 -68.86669 34836 ft 531 kts 63°
2026-05-08 13:18 44.33663 -68.77459 34830 ft 531 kts 63°
2026-05-08 13:18 44.36978 -68.68237 34837 ft 531 kts 63°
2026-05-08 13:19 44.40290 -68.58990 34821 ft 532 kts 63°
2026-05-08 13:19 44.43595 -68.49733 34796 ft 532 kts 64°
2026-05-08 13:20 44.46892 -68.40468 34823 ft 532 kts 64°
2026-05-08 13:20 44.50189 -68.31168 34831 ft 533 kts 64°
2026-05-08 13:21 44.53479 -68.21860 34826 ft 533 kts 64°
2026-05-08 13:21 44.56746 -68.12582 34815 ft 534 kts 64°
2026-05-08 13:22 44.60027 -68.03235 34809 ft 533 kts 64°
2026-05-08 13:22 44.63297 -67.93885 34779 ft 533 kts 65°
2026-05-08 13:23 44.66555 -67.84539 34790 ft 533 kts 65°
2026-05-08 13:23 44.69808 -67.75173 34794 ft 533 kts 65°
2026-05-08 13:24 44.72507 -67.67376 34797 ft 534 kts 65°
2026-05-08 13:24 44.75752 -67.57975 34799 ft 534 kts 65°
2026-05-08 13:25 44.78987 -67.48567 34786 ft 534 kts 65°
2026-05-08 13:25 44.82220 -67.39134 34767 ft 534 kts 66°
2026-05-08 13:26 44.85437 -67.29712 34790 ft 534 kts 66°
2026-05-08 13:26 44.88642 -67.20322 34798 ft 535 kts 65°
2026-05-08 13:27 44.92534 -67.11353 34795 ft 538 kts 53°
2026-05-08 13:27 44.97255 -67.03132 34798 ft 539 kts 51°
2026-05-08 13:28 45.02019 -66.94945 34788 ft 539 kts 52°
2026-05-08 13:28 45.06748 -66.86703 34784 ft 540 kts 52°
2026-05-08 13:29 45.11449 -66.78412 34771 ft 540 kts 52°
2026-05-08 13:29 45.16144 -66.70087 34767 ft 540 kts 52°
2026-05-08 13:30 45.20833 -66.61758 34753 ft 541 kts 53°
2026-05-08 13:30 45.25501 -66.53446 34757 ft 542 kts 53°
2026-05-08 13:31 45.30200 -66.45057 34755 ft 543 kts 53°
2026-05-08 13:31 45.34910 -66.36623 34744 ft 545 kts 53°
2026-05-08 13:32 45.39618 -66.28166 34737 ft 545 kts 53°
2026-05-08 13:32 45.44323 -66.19689 34739 ft 545 kts 53°
2026-05-08 13:33 45.49019 -66.11204 34738 ft 545 kts 54°
2026-05-08 13:33 45.53649 -66.02814 34736 ft 544 kts 54°
2026-05-08 13:34 45.58352 -65.94263 34734 ft 544 kts 54°
2026-05-08 13:34 45.63018 -65.85755 34706 ft 543 kts 54°
2026-05-08 13:35 45.67674 -65.77242 34719 ft 543 kts 54°
2026-05-08 13:35 45.72331 -65.68699 34727 ft 545 kts 54°
2026-05-08 13:36 45.76991 -65.60123 34720 ft 546 kts 55°
2026-05-08 13:36 45.81663 -65.51499 34726 ft 548 kts 55°
2026-05-08 13:37 45.86305 -65.42905 34712 ft 549 kts 55°
2026-05-08 13:37 45.90981 -65.34221 34719 ft 549 kts 55°
2026-05-08 13:38 45.95653 -65.25520 34717 ft 549 kts 56°
2026-05-08 13:38 46.00312 -65.16817 34712 ft 548 kts 56°
2026-05-08 13:39 46.04951 -65.08122 34712 ft 547 kts 56°
2026-05-08 13:39 46.09582 -64.99414 34709 ft 546 kts 56°
2026-05-08 13:40 46.14192 -64.90720 34714 ft 545 kts 56°
2026-05-08 13:40 46.18764 -64.82070 34703 ft 545 kts 56°
2026-05-08 13:41 46.23352 -64.73364 34707 ft 544 kts 56°
2026-05-08 13:41 46.27933 -64.64641 34707 ft 544 kts 56°
2026-05-08 13:42 46.32509 -64.55902 34706 ft 545 kts 56°
2026-05-08 13:42 46.37086 -64.47136 34707 ft 545 kts 56°
2026-05-08 13:43 46.41653 -64.38360 34710 ft 546 kts 57°
2026-05-08 13:43 46.46189 -64.29616 34715 ft 546 kts 57°
2026-05-08 13:44 46.50754 -64.20787 34712 ft 547 kts 57°
2026-05-08 13:44 46.55320 -64.11930 34662 ft 548 kts 58°
2026-05-08 13:45 46.59886 -64.03046 34707 ft 549 kts 58°
2026-05-08 13:45 46.64456 -63.94122 34717 ft 551 kts 58°
2026-05-08 13:46 46.69037 -63.85148 34709 ft 552 kts 58°
2026-05-08 13:46 46.73589 -63.76205 34710 ft 553 kts 58°
2026-05-08 13:47 46.78176 -63.67163 34713 ft 554 kts 58°
2026-05-08 13:47 46.82753 -63.58114 34711 ft 554 kts 58°
2026-05-08 13:48 46.87318 -63.49056 34711 ft 553 kts 58°
2026-05-08 13:48 46.91868 -63.40000 34717 ft 552 kts 58°
2026-05-08 13:49 46.96402 -63.30945 34716 ft 551 kts 58°
2026-05-08 13:49 47.00894 -63.21943 34662 ft 550 kts 59°
2026-05-08 13:50 47.05420 -63.12847 34720 ft 548 kts 59°
2026-05-08 13:50 47.09872 -63.03866 34722 ft 547 kts 59°
2026-05-08 13:51 47.14347 -62.94810 34715 ft 547 kts 60°
2026-05-08 13:51 47.18816 -62.85738 34728 ft 547 kts 60°
2026-05-08 13:52 47.23280 -62.76643 34725 ft 548 kts 60°
2026-05-08 13:52 47.27718 -62.67572 34729 ft 549 kts 60°
2026-05-08 13:53 47.32174 -62.58437 34727 ft 550 kts 60°
2026-05-08 13:53 47.36637 -62.49257 34726 ft 550 kts 60°
2026-05-08 13:54 47.41094 -62.40058 34727 ft 551 kts 60°
2026-05-08 13:54 47.45542 -62.30848 34707 ft 551 kts 61°
2026-05-08 13:55 47.49985 -62.21617 34708 ft 551 kts 62°
2026-05-08 13:56 47.56646 -62.07715 34739 ft 553 kts 62°
2026-05-08 13:56 47.61067 -61.98451 34729 ft 555 kts 62°
2026-05-08 13:57 47.65518 -61.89092 34701 ft 556 kts 62°
2026-05-08 13:57 47.69971 -61.79701 34698 ft 556 kts 62°
2026-05-08 13:58 47.74409 -61.70307 34702 ft 555 kts 62°
2026-05-08 13:58 47.78843 -61.60890 34700 ft 555 kts 63°
2026-05-08 13:59 47.83263 -61.51467 34710 ft 554 kts 63°
2026-05-08 13:59 47.87639 -61.42109 34714 ft 554 kts 63°
2026-05-08 14:00 47.92038 -61.32667 34701 ft 554 kts 63°
2026-05-08 14:00 47.96422 -61.23224 34716 ft 553 kts 63°
2026-05-08 14:01 48.00807 -61.13743 34734 ft 555 kts 63°
2026-05-08 14:01 48.05200 -61.04213 34730 ft 557 kts 64°
2026-05-08 14:02 48.09597 -60.94642 34732 ft 558 kts 64°
2026-05-08 14:02 48.13966 -60.85102 34734 ft 559 kts 64°
2026-05-08 14:03 48.18356 -60.75483 34728 ft 559 kts 64°
2026-05-08 14:03 48.22737 -60.65848 34712 ft 559 kts 64°
2026-05-08 14:04 48.27104 -60.56211 34722 ft 558 kts 64°
2026-05-08 14:04 48.31458 -60.46565 34720 ft 557 kts 64°
2026-05-08 14:05 48.35802 -60.36907 34721 ft 557 kts 64°
2026-05-08 14:05 48.40110 -60.27294 34664 ft 556 kts 64°
2026-05-08 14:06 48.44423 -60.17640 34719 ft 555 kts 64°
2026-05-08 14:06 48.48730 -60.07958 34721 ft 556 kts 65°
2026-05-08 14:07 48.53037 -59.98243 34712 ft 557 kts 65°
2026-05-08 14:07 48.57316 -59.88556 34724 ft 558 kts 65°
2026-05-08 14:08 48.61622 -59.78775 34724 ft 559 kts 65°
2026-05-08 14:08 48.65929 -59.68958 34702 ft 560 kts 65°
2026-05-08 14:09 48.70235 -59.59107 34722 ft 562 kts 65°
2026-05-08 14:09 48.74542 -59.49214 34727 ft 563 kts 65°
2026-05-08 14:10 48.78848 -59.39288 34721 ft 564 kts 65°
2026-05-08 14:10 48.82429 -59.31009 34711 ft 564 kts 65°
2026-05-08 14:11 48.86726 -59.21039 34687 ft 565 kts 66°
2026-05-08 14:11 48.91720 -59.09400 34718 ft 566 kts 66°
2026-05-08 14:12 48.95324 -59.00967 34708 ft 568 kts 66°
2026-05-08 14:12 48.99596 -58.90938 34716 ft 569 kts 66°
2026-05-08 14:13 49.03901 -58.80802 34716 ft 569 kts 66°
2026-05-08 14:13 49.08193 -58.70656 34711 ft 569 kts 66°
2026-05-08 14:14 49.12479 -58.60483 34709 ft 569 kts 66°
2026-05-08 14:14 49.16751 -58.50306 34706 ft 568 kts 66°
2026-05-08 14:15 49.20977 -58.40199 34705 ft 567 kts 66°
2026-05-08 14:15 49.25214 -58.30026 34682 ft 566 kts 66°
2026-05-08 14:16 49.29436 -58.19851 34629 ft 566 kts 66°
2026-05-08 14:16 49.33646 -58.09664 34679 ft 564 kts 66°
2026-05-08 14:17 49.37836 -57.99494 34687 ft 563 kts 66°
2026-05-08 14:17 49.42016 -57.89298 34675 ft 564 kts 66°
2026-05-08 14:18 49.46185 -57.79090 34677 ft 564 kts 66°
2026-05-08 14:18 49.50350 -57.68853 34680 ft 565 kts 66°
2026-05-08 14:19 49.54488 -57.58646 34664 ft 565 kts 66°
2026-05-08 14:19 49.58644 -57.48362 34685 ft 564 kts 66°
2026-05-08 14:20 49.62776 -57.38095 34678 ft 563 kts 66°
2026-05-08 14:20 49.66898 -57.27809 34648 ft 562 kts 66°
2026-05-08 14:21 49.70994 -57.17544 34660 ft 561 kts 66°
2026-05-08 14:21 49.75077 -57.07276 34607 ft 558 kts 66°
2026-05-08 14:22 49.79120 -56.97074 34647 ft 554 kts 66°
2026-05-08 14:22 49.83131 -56.86910 34659 ft 552 kts 66°
2026-05-08 14:23 49.87114 -56.76774 34656 ft 550 kts 66°
2026-05-08 14:23 49.91051 -56.66710 34657 ft 549 kts 66°
2026-05-08 14:24 49.95010 -56.56554 34666 ft 550 kts 66°
2026-05-08 14:24 49.98961 -56.46382 34660 ft 551 kts 66°
2026-05-08 14:25 50.02923 -56.36141 34671 ft 553 kts 66°
2026-05-08 14:25 50.06886 -56.25857 34677 ft 555 kts 66°
2026-05-08 14:26 50.10830 -56.15586 34669 ft 557 kts 66°
2026-05-08 14:26 50.14802 -56.05200 34672 ft 557 kts 66°
2026-05-08 14:27 50.18764 -55.94798 34667 ft 558 kts 66°
2026-05-08 14:27 50.22723 -55.84364 34675 ft 558 kts 66°
2026-05-08 14:28 50.26678 -55.73894 34686 ft 560 kts 66°
2026-05-08 14:28 50.30639 -55.63364 34669 ft 562 kts 66°
2026-05-08 14:29 50.34573 -55.52869 34680 ft 562 kts 66°
2026-05-08 14:29 50.38524 -55.42286 34678 ft 562 kts 66°
2026-05-08 14:30 50.42463 -55.31692 34672 ft 562 kts 66°
2026-05-08 14:30 50.46387 -55.21094 34684 ft 561 kts 66°
2026-05-08 14:31 50.50269 -55.10564 34684 ft 560 kts 66°
2026-05-08 14:31 50.54162 -54.99963 34692 ft 560 kts 66°
2026-05-08 14:32 50.59980 -54.84033 34695 ft 559 kts 66°
2026-05-08 14:32 50.63841 -54.73410 34694 ft 559 kts 66°
2026-05-08 14:33 50.67692 -54.62768 34695 ft 558 kts 66°
2026-05-08 14:33 50.71528 -54.52123 34679 ft 558 kts 66°
2026-05-08 14:34 50.75332 -54.41524 34693 ft 557 kts 66°
2026-05-08 14:34 50.79150 -54.30843 34705 ft 558 kts 67°
2026-05-08 14:35 50.82955 -54.20149 34696 ft 558 kts 67°
2026-05-08 14:35 50.86755 -54.09426 34687 ft 558 kts 67°
2026-05-08 14:36 50.90519 -53.98763 34696 ft 557 kts 67°
2026-05-08 14:36 50.94292 -53.88030 34696 ft 556 kts 67°
2026-05-08 14:37 50.98044 -53.77305 34702 ft 556 kts 67°
2026-05-08 14:37 51.01778 -53.66591 34703 ft 555 kts 67°
2026-05-08 14:38 51.05503 -53.55855 34643 ft 554 kts 67°
2026-05-08 14:38 51.09200 -53.45159 34694 ft 550 kts 67°
2026-05-08 14:39 51.12869 -53.34492 34686 ft 548 kts 67°
2026-05-08 14:39 51.16505 -53.23847 34733 ft 547 kts 69°
2026-05-08 14:40 51.18144 -53.18392 34940 ft 544 kts 72°
2026-05-08 14:40 51.19665 -53.12904 35258 ft 542 kts 73°
2026-05-08 14:40 51.21142 -53.07450 35592 ft 540 kts 73°
2026-05-08 14:40 51.22627 -53.01921 35682 ft 542 kts 73°
2026-05-08 14:41 51.25601 -52.90880 35695 ft 540 kts 73°
2026-05-08 14:41 51.28575 -52.79915 35700 ft 536 kts 73°
2026-05-08 14:42 51.31528 -52.69017 35710 ft 534 kts 73°
2026-05-08 14:42 51.34466 -52.58113 35717 ft 533 kts 73°
2026-05-08 14:43 51.37389 -52.47205 35668 ft 534 kts 73°
2026-05-08 14:43 51.40306 -52.36266 35711 ft 534 kts 72°
2026-05-08 14:44 51.43199 -52.25367 35729 ft 536 kts 72°
2026-05-08 14:44 51.46113 -52.14341 35734 ft 537 kts 72°
2026-05-08 14:45 51.49020 -52.03286 35731 ft 539 kts 73°
2026-05-08 14:45 51.51929 -51.92169 35727 ft 540 kts 72°
2026-05-08 14:46 51.54811 -51.81107 35734 ft 540 kts 73°
2026-05-08 14:46 51.57703 -51.69946 35736 ft 540 kts 73°
2026-05-08 14:47 51.60583 -51.58779 35737 ft 540 kts 73°
2026-05-08 14:47 51.63453 -51.47593 35726 ft 540 kts 73°
2026-05-08 14:48 51.66308 -51.36412 35739 ft 538 kts 72°
2026-05-08 14:48 51.69129 -51.25309 35743 ft 538 kts 72°
2026-05-08 14:49 51.71955 -51.14127 35754 ft 538 kts 72°
2026-05-08 14:49 51.74769 -51.02937 35750 ft 538 kts 72°
2026-05-08 14:50 51.77575 -50.91724 35758 ft 538 kts 72°
2026-05-08 14:50 51.80366 -50.80515 35770 ft 538 kts 72°
2026-05-08 14:51 51.83148 -50.69288 35768 ft 537 kts 72°
2026-05-08 14:51 51.85915 -50.58063 35777 ft 537 kts 72°
2026-05-08 14:52 51.90042 -50.41207 35787 ft 537 kts 72°
2026-05-08 14:53 51.92780 -50.29958 35763 ft 536 kts 72°
2026-05-08 14:53 51.95481 -50.18803 35779 ft 535 kts 72°
2026-05-08 14:54 51.98184 -50.07579 35800 ft 534 kts 72°
2026-05-08 14:54 52.00892 -49.96337 35802 ft 534 kts 72°
2026-05-08 14:55 52.03698 -49.85148 35811 ft 534 kts 71°
2026-05-08 14:55 52.06527 -49.73988 35810 ft 534 kts 71°
2026-05-08 14:56 52.09332 -49.62814 35813 ft 534 kts 71°
2026-05-08 14:56 52.12111 -49.51625 35831 ft 533 kts 71°
2026-05-08 14:57 52.14858 -49.40491 35830 ft 533 kts 71°
2026-05-08 14:57 52.17611 -49.29274 35833 ft 533 kts 71°
2026-05-08 14:58 52.20353 -49.18053 35834 ft 532 kts 71°
2026-05-08 14:58 52.22622 -49.08725 35838 ft 532 kts 71°
2026-05-08 14:59 52.25344 -48.97483 35850 ft 532 kts 71°
2026-05-08 14:59 52.29402 -48.80615 35853 ft 532 kts 71°
2026-05-08 15:00 52.32093 -48.69354 35872 ft 532 kts 71°
2026-05-08 15:00 52.34773 -48.58077 35874 ft 532 kts 71°
2026-05-08 15:01 52.37428 -48.46854 35873 ft 532 kts 71°
2026-05-08 15:01 52.40087 -48.35551 35879 ft 531 kts 71°
2026-05-08 15:02 52.42731 -48.24254 35890 ft 531 kts 71°
2026-05-08 15:02 52.45366 -48.12935 35897 ft 531 kts 71°
2026-05-08 15:03 52.47984 -48.01629 35891 ft 529 kts 70°
2026-05-08 15:03 52.50588 -47.90325 35893 ft 528 kts 71°
2026-05-08 15:04 52.53157 -47.79114 35928 ft 527 kts 71°
2026-05-08 15:04 52.55727 -47.67840 35920 ft 527 kts 71°
2026-05-08 15:05 52.58284 -47.56560 35919 ft 526 kts 71°
2026-05-08 15:05 52.60830 -47.45266 35918 ft 526 kts 71°
2026-05-08 15:06 52.63366 -47.33961 35952 ft 526 kts 71°
2026-05-08 15:06 52.65888 -47.22652 35952 ft 527 kts 71°
2026-05-08 15:07 52.68406 -47.11300 35947 ft 527 kts 70°
2026-05-08 15:07 52.70903 -46.99985 35964 ft 528 kts 70°
2026-05-08 15:08 52.73408 -46.88571 35957 ft 529 kts 70°
2026-05-08 15:08 52.75901 -46.77145 35977 ft 529 kts 70°
2026-05-08 15:09 52.78381 -46.65715 35981 ft 528 kts 70°
2026-05-08 15:09 52.80844 -46.54303 35991 ft 526 kts 70°
2026-05-08 15:10 52.83289 -46.42911 35998 ft 525 kts 70°
2026-05-08 15:10 52.85705 -46.31593 36017 ft 524 kts 70°
2026-05-08 15:11 52.88118 -46.20222 36029 ft 523 kts 70°
2026-05-08 15:11 52.90522 -46.08826 36027 ft 523 kts 70°
2026-05-08 15:12 52.92913 -45.97435 36036 ft 523 kts 70°
2026-05-08 15:12 52.95291 -45.86040 36044 ft 523 kts 70°
2026-05-08 15:13 52.97657 -45.74633 36055 ft 523 kts 70°
2026-05-08 15:13 53.00013 -45.63213 36048 ft 523 kts 70°
2026-05-08 15:14 53.02357 -45.51783 36064 ft 522 kts 70°
2026-05-08 15:14 53.04672 -45.40430 36078 ft 521 kts 70°
2026-05-08 15:15 53.06989 -45.29004 36078 ft 521 kts 70°
2026-05-08 15:15 53.09293 -45.17572 36103 ft 520 kts 70°
2026-05-08 15:16 53.11584 -45.06142 36081 ft 519 kts 70°
2026-05-08 15:16 53.13859 -44.94723 36096 ft 518 kts 70°
2026-05-08 15:17 53.16104 -44.83388 36108 ft 518 kts 70°
2026-05-08 15:17 53.18351 -44.71977 36117 ft 518 kts 70°
2026-05-08 15:18 53.20583 -44.60576 36125 ft 517 kts 70°
2026-05-08 15:18 53.22800 -44.49185 36123 ft 516 kts 70°
2026-05-08 15:19 53.25004 -44.37789 36150 ft 514 kts 69°
2026-05-08 15:19 53.27188 -44.26432 36131 ft 513 kts 69°
2026-05-08 15:20 53.29354 -44.15096 36167 ft 511 kts 69°
2026-05-08 15:20 53.31488 -44.03868 36143 ft 509 kts 69°
2026-05-08 15:21 53.33616 -43.92602 36157 ft 507 kts 69°
2026-05-08 15:21 53.35727 -43.81359 36170 ft 506 kts 69°
2026-05-08 15:22 53.37826 -43.70111 36180 ft 505 kts 70°
2026-05-08 15:22 53.39911 -43.58872 36168 ft 505 kts 69°
2026-05-08 15:23 53.41985 -43.47626 36172 ft 504 kts 69°
2026-05-08 15:23 53.44044 -43.36392 36190 ft 503 kts 69°
2026-05-08 15:24 53.46091 -43.25156 36190 ft 503 kts 70°
2026-05-08 15:24 53.48115 -43.13975 36214 ft 503 kts 69°
2026-05-08 15:25 53.50138 -43.02735 36196 ft 503 kts 69°
2026-05-08 15:25 53.52151 -42.91477 36213 ft 502 kts 69°
2026-05-08 15:26 53.54147 -42.80243 36214 ft 501 kts 70°
2026-05-08 15:26 53.56130 -42.69018 36223 ft 500 kts 70°
2026-05-08 15:27 53.58100 -42.57791 36235 ft 500 kts 69°
2026-05-08 15:27 53.60059 -42.46564 36232 ft 500 kts 69°
2026-05-08 15:28 53.61994 -42.35398 36237 ft 499 kts 70°
2026-05-08 15:28 53.63930 -42.24161 36240 ft 499 kts 70°
2026-05-08 15:29 53.65854 -42.12919 36245 ft 499 kts 70°
2026-05-08 15:29 53.67765 -42.01677 36259 ft 498 kts 70°
2026-05-08 15:30 53.69667 -41.90423 36258 ft 498 kts 69°
2026-05-08 15:30 53.71551 -41.79197 36269 ft 496 kts 69°
2026-05-08 15:31 53.73403 -41.68088 36274 ft 493 kts 69°
2026-05-08 15:31 53.75263 -41.56866 36289 ft 492 kts 69°
2026-05-08 15:32 53.77080 -41.45825 36276 ft 490 kts 69°
2026-05-08 15:32 53.78893 -41.34743 36286 ft 488 kts 69°
2026-05-08 15:33 53.80694 -41.23668 36304 ft 488 kts 69°
2026-05-08 15:33 53.82483 -41.12592 36303 ft 487 kts 69°
2026-05-08 15:34 53.84260 -41.01512 36316 ft 488 kts 69°
2026-05-08 15:34 53.86031 -40.90399 36304 ft 488 kts 69°
2026-05-08 15:35 53.87791 -40.79283 36318 ft 488 kts 69°
2026-05-08 15:35 53.89541 -40.68150 36318 ft 489 kts 69°
2026-05-08 15:36 53.90989 -40.58882 36331 ft 488 kts 69°
2026-05-08 15:36 53.92994 -40.45960 36319 ft 486 kts 69°
2026-05-08 15:37 53.94702 -40.34871 36332 ft 485 kts 69°
2026-05-08 15:37 53.96397 -40.23799 36335 ft 483 kts 70°
2026-05-08 15:38 53.98078 -40.12737 36336 ft 483 kts 70°
2026-05-08 15:38 53.99748 -40.01687 36337 ft 482 kts 70°
2026-05-08 15:39 54.01365 -39.90690 36349 ft 483 kts 70°
2026-05-08 15:39 54.02948 -39.79577 36347 ft 483 kts 70°
2026-05-08 15:40 54.04520 -39.68450 36356 ft 483 kts 70°
2026-05-08 15:40 54.06087 -39.57317 36356 ft 483 kts 70°
2026-05-08 15:41 54.07650 -39.46167 36362 ft 484 kts 70°
2026-05-08 15:41 54.09201 -39.35017 36369 ft 484 kts 70°
2026-05-08 15:42 54.10736 -39.23903 36379 ft 484 kts 70°
2026-05-08 15:42 54.12271 -39.12709 36374 ft 485 kts 70°
2026-05-08 15:43 54.13793 -39.01513 36377 ft 485 kts 70°
2026-05-08 15:43 54.15307 -38.90297 36377 ft 484 kts 70°
2026-05-08 15:44 54.16809 -38.79075 36394 ft 485 kts 70°
2026-05-08 15:44 54.18294 -38.67900 36387 ft 485 kts 70°
2026-05-08 15:45 54.19538 -38.58481 36396 ft 485 kts 70°
2026-05-08 15:45 54.21013 -38.47222 36397 ft 485 kts 70°
2026-05-08 15:46 54.22476 -38.35974 36404 ft 485 kts 70°
2026-05-08 15:46 54.23920 -38.24783 36413 ft 486 kts 70°
2026-05-08 15:47 54.25365 -38.13491 36412 ft 486 kts 70°
2026-05-08 15:47 54.26798 -38.02206 36421 ft 486 kts 70°
2026-05-08 15:48 54.28927 -37.85266 36415 ft 485 kts 70°
2026-05-08 15:49 54.30330 -37.73980 36454 ft 484 kts 70°
2026-05-08 15:49 54.31719 -37.62721 36426 ft 482 kts 70°
2026-05-08 15:50 54.33094 -37.51485 36429 ft 481 kts 70°
2026-05-08 15:50 54.34445 -37.40358 36431 ft 479 kts 70°
2026-05-08 15:51 54.35793 -37.29161 36442 ft 479 kts 70°
2026-05-08 15:51 54.37129 -37.17974 36469 ft 479 kts 70°
2026-05-08 15:52 54.38456 -37.06768 36450 ft 479 kts 70°
2026-05-08 15:52 54.39771 -36.95563 36453 ft 479 kts 70°
2026-05-08 15:53 54.41076 -36.84350 36458 ft 479 kts 70°
2026-05-08 15:53 54.42369 -36.73138 36453 ft 479 kts 70°
2026-05-08 15:54 54.43654 -36.61909 36498 ft 479 kts 70°
2026-05-08 15:54 54.44918 -36.50756 36468 ft 478 kts 70°
2026-05-08 15:55 54.46177 -36.39547 36463 ft 477 kts 70°
2026-05-08 15:55 54.48042 -36.22762 36464 ft 475 kts 70°
2026-05-08 15:56 54.49269 -36.11596 36477 ft 475 kts 70°
2026-05-08 15:56 54.50488 -36.00413 36473 ft 475 kts 70°
2026-05-08 15:57 54.51698 -35.89208 36483 ft 475 kts 70°
2026-05-08 15:57 54.52888 -35.78081 36478 ft 476 kts 70°
2026-05-08 15:58 54.54077 -35.66865 36479 ft 476 kts 70°
2026-05-08 15:58 54.55256 -35.55633 36482 ft 477 kts 71°
2026-05-08 15:59 54.56426 -35.44378 36493 ft 477 kts 70°
2026-05-08 15:59 54.57587 -35.33105 36500 ft 477 kts 71°
2026-05-08 16:00 54.58732 -35.21858 36487 ft 475 kts 71°
2026-05-08 16:00 54.59857 -35.10709 36488 ft 473 kts 71°
2026-05-08 16:01 54.60973 -34.99555 36492 ft 471 kts 71°
2026-05-08 16:01 54.62078 -34.88408 36492 ft 470 kts 71°
2026-05-08 16:02 54.63170 -34.77289 36496 ft 470 kts 71°
2026-05-08 16:02 54.64253 -34.66149 36497 ft 470 kts 71°
2026-05-08 16:03 54.65327 -34.54995 36497 ft 471 kts 71°
2026-05-08 16:03 54.66386 -34.43880 36498 ft 472 kts 71°
2026-05-08 16:04 54.67442 -34.32674 36520 ft 473 kts 71°
2026-05-08 16:04 54.68489 -34.21441 36502 ft 473 kts 71°
2026-05-08 16:05 54.69526 -34.10193 36497 ft 473 kts 71°
2026-05-08 16:05 54.70543 -33.99045 36513 ft 472 kts 71°
2026-05-08 16:06 54.71558 -33.87817 36506 ft 472 kts 71°
2026-05-08 16:06 54.72562 -33.76585 36540 ft 472 kts 72°
2026-05-08 16:07 54.73559 -33.65330 36517 ft 474 kts 72°
2026-05-08 16:07 54.74549 -33.54012 36515 ft 476 kts 72°
2026-05-08 16:08 54.75530 -33.42669 36516 ft 477 kts 72°
2026-05-08 16:08 54.76505 -33.31268 36515 ft 478 kts 72°
2026-05-08 16:09 54.77306 -33.21789 36510 ft 479 kts 73°
2026-05-08 16:09 54.78420 -33.08478 36521 ft 481 kts 73°
2026-05-08 16:10 54.79366 -32.97011 36524 ft 481 kts 73°
2026-05-08 16:10 54.80303 -32.85512 36523 ft 481 kts 73°
2026-05-08 16:11 54.81229 -32.74017 36519 ft 481 kts 74°
2026-05-08 16:11 54.82144 -32.62530 36536 ft 481 kts 74°
2026-05-08 16:12 54.83048 -32.51032 36526 ft 480 kts 75°
2026-05-08 16:12 54.83935 -32.39579 36517 ft 478 kts 75°
2026-05-08 16:13 54.84809 -32.28179 36518 ft 476 kts 75°
2026-05-08 16:13 54.85670 -32.16808 36524 ft 474 kts 75°
2026-05-08 16:14 54.86514 -32.05533 36526 ft 474 kts 75°
2026-05-08 16:14 54.87353 -31.94175 36529 ft 474 kts 75°
2026-05-08 16:15 54.88180 -31.82820 36526 ft 473 kts 75°
2026-05-08 16:15 54.88995 -31.71472 36523 ft 473 kts 75°
2026-05-08 16:16 54.89799 -31.60135 36522 ft 472 kts 75°
2026-05-08 16:16 54.90588 -31.48871 36527 ft 473 kts 75°
2026-05-08 16:17 54.91240 -31.39437 36528 ft 473 kts 76°
2026-05-08 16:17 54.92144 -31.26170 36543 ft 473 kts 76°
2026-05-08 16:18 54.92906 -31.14797 36528 ft 472 kts 76°
2026-05-08 16:18 54.93655 -31.03462 36524 ft 471 kts 76°
2026-05-08 16:19 54.94389 -30.92203 36524 ft 471 kts 76°
2026-05-08 16:19 54.95117 -30.80879 36531 ft 471 kts 77°
2026-05-08 16:20 54.95834 -30.69546 36524 ft 471 kts 77°
2026-05-08 16:20 54.96540 -30.58222 36522 ft 470 kts 77°
2026-05-08 16:21 54.97235 -30.46899 36523 ft 470 kts 77°
2026-05-08 16:21 54.97920 -30.35560 36523 ft 471 kts 77°
2026-05-08 16:22 54.98590 -30.24299 36542 ft 471 kts 77°
2026-05-08 16:22 54.99256 -30.12936 36526 ft 471 kts 77°
2026-05-08 16:23 54.99911 -30.01576 36522 ft 471 kts 77°
2026-05-08 16:23 55.00461 -29.90173 36517 ft 472 kts 79°
2026-05-08 16:24 55.00889 -29.78745 36520 ft 473 kts 79°
2026-05-08 16:24 55.01305 -29.67326 36553 ft 472 kts 79°
2026-05-08 16:25 55.01728 -29.55893 36523 ft 472 kts 79°
2026-05-08 16:25 55.02146 -29.44571 36507 ft 470 kts 79°
2026-05-08 16:26 55.02556 -29.33213 36511 ft 469 kts 79°
2026-05-08 16:26 55.02955 -29.21875 36514 ft 468 kts 79°
2026-05-08 16:27 55.03343 -29.10556 36512 ft 468 kts 79°
2026-05-08 16:27 55.03719 -28.99236 36508 ft 468 kts 79°
2026-05-08 16:28 55.04086 -28.87897 36504 ft 468 kts 79°
2026-05-08 16:28 55.04442 -28.76556 36505 ft 469 kts 79°
2026-05-08 16:29 55.04789 -28.65183 36525 ft 470 kts 79°
2026-05-08 16:29 55.05124 -28.53795 36508 ft 470 kts 79°
2026-05-08 16:30 55.05446 -28.42500 36510 ft 469 kts 79°
2026-05-08 16:30 55.05760 -28.31132 36502 ft 468 kts 79°
2026-05-08 16:31 55.06062 -28.19789 36501 ft 467 kts 79°
2026-05-08 16:31 55.06305 -28.10374 36499 ft 466 kts 79°
2026-05-08 16:32 55.06588 -27.99076 36495 ft 466 kts 79°
2026-05-08 16:32 55.06860 -27.87781 36534 ft 466 kts 79°
2026-05-08 16:33 55.07122 -27.76480 36505 ft 466 kts 79°
2026-05-08 16:33 55.07373 -27.65174 36494 ft 466 kts 79°
2026-05-08 16:34 55.07613 -27.53876 36490 ft 466 kts 79°
2026-05-08 16:34 55.07842 -27.42649 36491 ft 466 kts 80°
2026-05-08 16:35 55.08062 -27.31335 36508 ft 466 kts 80°
2026-05-08 16:35 55.08272 -27.20003 36491 ft 467 kts 80°
2026-05-08 16:36 55.08470 -27.08670 36485 ft 467 kts 80°
2026-05-08 16:36 55.08658 -26.97359 36479 ft 466 kts 80°
2026-05-08 16:37 55.08835 -26.86054 36482 ft 466 kts 80°
2026-05-08 16:37 55.09003 -26.74747 36480 ft 465 kts 80°
2026-05-08 16:38 55.09160 -26.63451 36496 ft 466 kts 80°
2026-05-08 16:38 55.09306 -26.52140 36480 ft 466 kts 80°
2026-05-08 16:39 55.09441 -26.40828 36473 ft 466 kts 81°
2026-05-08 16:39 55.09566 -26.29519 36474 ft 465 kts 81°
2026-05-08 16:40 55.09681 -26.18218 36474 ft 465 kts 81°
2026-05-08 16:40 55.09785 -26.06920 36526 ft 465 kts 81°
2026-05-08 16:41 55.09880 -25.95586 36465 ft 467 kts 81°
2026-05-08 16:42 55.10000 -25.78665 36457 ft 466 kts 81°
2026-05-08 16:42 55.10067 -25.67343 36456 ft 466 kts 81°
2026-05-08 16:43 55.10124 -25.56027 36452 ft 465 kts 81°
2026-05-08 16:43 55.10171 -25.44777 36485 ft 465 kts 82°
2026-05-08 16:44 55.10208 -25.33459 36459 ft 466 kts 82°
2026-05-08 16:44 55.10234 -25.22137 36450 ft 466 kts 82°
2026-05-08 16:45 55.10249 -25.10790 36451 ft 467 kts 82°
2026-05-08 16:45 55.10253 -24.99453 36442 ft 467 kts 82°
2026-05-08 16:46 55.10248 -24.88092 36444 ft 467 kts 82°
2026-05-08 16:46 55.10232 -24.76806 36461 ft 468 kts 83°
2026-05-08 16:47 55.10205 -24.65425 36444 ft 469 kts 83°
2026-05-08 16:47 55.10167 -24.54041 36440 ft 469 kts 83°
2026-05-08 16:48 55.10119 -24.42658 36432 ft 469 kts 83°
2026-05-08 16:48 55.10060 -24.31273 36432 ft 469 kts 83°
2026-05-08 16:49 55.09990 -24.19879 36435 ft 469 kts 84°
2026-05-08 16:49 55.09911 -24.08557 36429 ft 469 kts 84°
2026-05-08 16:50 55.09820 -23.97168 36430 ft 469 kts 84°
2026-05-08 16:50 55.09719 -23.85775 36426 ft 469 kts 84°
2026-05-08 16:51 55.09607 -23.74378 36417 ft 469 kts 84°
2026-05-08 16:51 55.09484 -23.62990 36445 ft 469 kts 84°
2026-05-08 16:52 55.09351 -23.51573 36423 ft 470 kts 84°
2026-05-08 16:52 55.09207 -23.40167 36412 ft 470 kts 84°
2026-05-08 16:53 55.08971 -23.23143 36411 ft 469 kts 85°
2026-05-08 16:53 55.08801 -23.11754 36409 ft 469 kts 85°
2026-05-08 16:54 55.08620 -23.00385 36408 ft 469 kts 85°
2026-05-08 16:54 55.08429 -22.89000 36398 ft 469 kts 85°
2026-05-08 16:55 55.08227 -22.77631 36403 ft 469 kts 85°
2026-05-08 16:55 55.08014 -22.66252 36402 ft 469 kts 85°
2026-05-08 16:56 55.07791 -22.54886 36401 ft 469 kts 85°
2026-05-08 16:56 55.07558 -22.43505 36421 ft 469 kts 85°
2026-05-08 16:57 55.07314 -22.32175 36403 ft 470 kts 85°
2026-05-08 16:57 55.07059 -22.20786 36393 ft 470 kts 85°
2026-05-08 16:58 55.06792 -22.09374 36398 ft 470 kts 86°
2026-05-08 16:58 55.06515 -21.97984 36389 ft 470 kts 86°
2026-05-08 16:59 55.06227 -21.86601 36386 ft 469 kts 86°
2026-05-08 16:59 55.05931 -21.75227 36391 ft 470 kts 87°
2026-05-08 17:00 55.05622 -21.63834 36386 ft 470 kts 87°
2026-05-08 17:00 55.05302 -21.52444 36386 ft 470 kts 87°
2026-05-08 17:01 55.04972 -21.41046 36375 ft 470 kts 87°
2026-05-08 17:01 55.04631 -21.29647 36375 ft 471 kts 87°
2026-05-08 17:02 55.04279 -21.18228 36380 ft 472 kts 88°
2026-05-08 17:02 55.03918 -21.06864 36379 ft 473 kts 88°
2026-05-08 17:03 55.03542 -20.95402 36372 ft 473 kts 88°
2026-05-08 17:03 55.03156 -20.83933 36377 ft 474 kts 89°
2026-05-08 17:04 55.02758 -20.72441 36364 ft 475 kts 89°
2026-05-08 17:04 55.02349 -20.60937 36377 ft 476 kts 89°
2026-05-08 17:05 55.01928 -20.49417 36366 ft 477 kts 90°
2026-05-08 17:05 55.01495 -20.37872 36362 ft 478 kts 90°
2026-05-08 17:06 55.01051 -20.26315 36359 ft 478 kts 90°
2026-05-08 17:06 55.00597 -20.14754 36359 ft 478 kts 90°
2026-05-08 17:07 55.00094 -20.03192 36373 ft 480 kts 93°
2026-05-08 17:07 54.98667 -19.91785 36361 ft 486 kts 104°
2026-05-08 17:08 54.96633 -19.80549 36347 ft 487 kts 104°
2026-05-08 17:08 54.94602 -19.69388 36355 ft 487 kts 104°
2026-05-08 17:09 54.92575 -19.58125 36347 ft 488 kts 104°
2026-05-08 17:09 54.90549 -19.46843 36330 ft 489 kts 104°
2026-05-08 17:10 54.88514 -19.35559 36353 ft 489 kts 105°
2026-05-08 17:10 54.86465 -19.24279 36330 ft 489 kts 105°
2026-05-08 17:11 54.84404 -19.13003 36333 ft 490 kts 105°
2026-05-08 17:11 54.82345 -19.01817 36334 ft 490 kts 105°
2026-05-08 17:12 54.80263 -18.90564 36327 ft 490 kts 106°
2026-05-08 17:12 54.78169 -18.79317 36327 ft 491 kts 106°
2026-05-08 17:13 54.76060 -18.68055 36329 ft 491 kts 107°
2026-05-08 17:13 54.73938 -18.56794 36328 ft 493 kts 107°
2026-05-08 17:14 54.71811 -18.45572 36329 ft 494 kts 107°
2026-05-08 17:14 54.69654 -18.34262 36332 ft 495 kts 107°
2026-05-08 17:15 54.67484 -18.22950 36321 ft 496 kts 107°
2026-05-08 17:15 54.65302 -18.11643 36320 ft 496 kts 107°
2026-05-08 17:16 54.63483 -18.02264 36316 ft 496 kts 108°
2026-05-08 17:16 54.61278 -17.90955 36319 ft 497 kts 108°
2026-05-08 17:17 54.59061 -17.79658 36307 ft 498 kts 108°
2026-05-08 17:17 54.56829 -17.68346 36322 ft 498 kts 108°
2026-05-08 17:18 54.54588 -17.57058 36301 ft 498 kts 108°
2026-05-08 17:18 54.52336 -17.45776 36312 ft 498 kts 108°
2026-05-08 17:19 54.50075 -17.34509 36302 ft 498 kts 110°
2026-05-08 17:19 54.47813 -17.23309 36305 ft 498 kts 110°
2026-05-08 17:20 54.45524 -17.12042 36299 ft 499 kts 110°
2026-05-08 17:20 54.43226 -17.00786 36296 ft 499 kts 110°
2026-05-08 17:21 54.40911 -16.89519 36292 ft 499 kts 110°
2026-05-08 17:21 54.38589 -16.78276 36286 ft 499 kts 110°
2026-05-08 17:22 54.36257 -16.67046 36277 ft 499 kts 111°
2026-05-08 17:22 54.33935 -16.55930 36286 ft 498 kts 111°
2026-05-08 17:23 54.31589 -16.44760 36282 ft 497 kts 111°
2026-05-08 17:23 54.29237 -16.33628 36272 ft 497 kts 111°
2026-05-08 17:24 54.26878 -16.22516 36275 ft 496 kts 111°
2026-05-08 17:24 54.24525 -16.11499 36268 ft 496 kts 112°
2026-05-08 17:25 54.22151 -16.00437 36270 ft 495 kts 112°
2026-05-08 17:25 54.19767 -15.89392 36267 ft 495 kts 112°
2026-05-08 17:26 54.17371 -15.78353 36277 ft 495 kts 112°
2026-05-08 17:26 54.14966 -15.67329 36265 ft 496 kts 113°
2026-05-08 17:27 54.12546 -15.56297 36256 ft 496 kts 113°
2026-05-08 17:27 54.10130 -15.45336 36247 ft 497 kts 114°
2026-05-08 17:28 54.07686 -15.34311 36262 ft 497 kts 114°
2026-05-08 17:28 54.05232 -15.23296 36241 ft 498 kts 114°
2026-05-08 17:29 54.02769 -15.12286 36251 ft 498 kts 114°
2026-05-08 17:29 54.00687 -15.01043 36248 ft 502 kts 104°
2026-05-08 17:30 53.99907 -14.89219 36248 ft 506 kts 92°
2026-05-08 17:30 53.99978 -14.77246 36252 ft 507 kts 92°
2026-05-08 17:31 54.00069 -14.65324 36251 ft 507 kts 92°
2026-05-08 17:31 54.00100 -14.53319 36247 ft 508 kts 92°
2026-05-08 17:32 54.00096 -14.41294 36243 ft 508 kts 93°
2026-05-08 17:32 54.00080 -14.29273 36230 ft 509 kts 93°
2026-05-08 17:33 54.00056 -14.17234 36235 ft 509 kts 93°
2026-05-08 17:33 54.00022 -14.05207 36238 ft 509 kts 94°
2026-05-08 17:34 53.99404 -13.93329 36398 ft 508 kts 103°
2026-05-08 17:34 53.98764 -13.87433 36706 ft 506 kts 104°
2026-05-08 17:34 53.98091 -13.81568 37080 ft 504 kts 104°
2026-05-08 17:35 53.97412 -13.75724 37246 ft 506 kts 104°
2026-05-08 17:35 53.96732 -13.69842 37199 ft 507 kts 104°
2026-05-08 17:35 53.95403 -13.58117 37208 ft 502 kts 104°
2026-05-08 17:36 53.94104 -13.46517 37229 ft 499 kts 104°
2026-05-08 17:36 53.92802 -13.34958 37224 ft 498 kts 104°
2026-05-08 17:37 53.91488 -13.23410 37212 ft 498 kts 104°
2026-05-08 17:37 53.90160 -13.11859 37223 ft 499 kts 105°
2026-05-08 17:38 53.88818 -13.00296 37221 ft 501 kts 105°
2026-05-08 17:38 53.87468 -12.88771 37219 ft 502 kts 105°
2026-05-08 17:39 53.86094 -12.77132 37211 ft 504 kts 105°
2026-05-08 17:39 53.84706 -12.65481 37209 ft 505 kts 105°
2026-05-08 17:40 53.83306 -12.53826 37191 ft 505 kts 105°
2026-05-08 17:40 53.81896 -12.42192 37200 ft 505 kts 106°
2026-05-08 17:41 53.80472 -12.30552 37196 ft 504 kts 106°
2026-05-08 17:41 53.79039 -12.18933 37195 ft 504 kts 106°
2026-05-08 17:42 53.77606 -12.07413 37189 ft 503 kts 106°
2026-05-08 17:42 53.76154 -11.95829 37189 ft 503 kts 106°
2026-05-08 17:43 53.74691 -11.84268 37189 ft 503 kts 106°
2026-05-08 17:43 53.73215 -11.72692 37188 ft 503 kts 107°
2026-05-08 17:44 53.71730 -11.61141 37188 ft 503 kts 107°
2026-05-08 17:44 53.70232 -11.49588 37169 ft 504 kts 107°
2026-05-08 17:45 53.68734 -11.38119 37176 ft 503 kts 107°
2026-05-08 17:45 53.67217 -11.26597 37177 ft 503 kts 107°
2026-05-08 17:46 53.65688 -11.15086 37178 ft 503 kts 107°
2026-05-08 17:46 53.64146 -11.03568 37171 ft 503 kts 107°
2026-05-08 17:47 53.62594 -10.92061 37169 ft 503 kts 107°
2026-05-08 17:47 53.61295 -10.82495 37163 ft 503 kts 107°
2026-05-08 17:48 53.59469 -10.69160 37164 ft 503 kts 107°
2026-05-08 17:48 53.57886 -10.57695 37163 ft 503 kts 108°
2026-05-08 17:49 53.56293 -10.46248 37157 ft 502 kts 108°
2026-05-08 17:49 53.54689 -10.34807 37116 ft 502 kts 108°
2026-05-08 17:50 53.53075 -10.23378 37152 ft 502 kts 108°
2026-05-08 17:50 53.51452 -10.11973 37144 ft 502 kts 108°
2026-05-08 17:51 53.49817 -10.00576 37140 ft 502 kts 108°
2026-05-08 17:51 53.48172 -9.89182 37139 ft 502 kts 108°
2026-05-08 17:52 53.46525 -9.77861 37129 ft 502 kts 108°
2026-05-08 17:53 53.44020 -9.60800 37133 ft 502 kts 108°
2026-05-08 17:53 53.42335 -9.49429 37133 ft 502 kts 109°
2026-05-08 17:54 53.40638 -9.38060 37132 ft 503 kts 109°
2026-05-08 17:54 53.38932 -9.26709 37115 ft 502 kts 109°
2026-05-08 17:55 53.37213 -9.15344 37124 ft 502 kts 109°
2026-05-08 17:55 53.35496 -9.04085 37107 ft 502 kts 109°
2026-05-08 17:56 53.33758 -8.92763 37108 ft 502 kts 109°
2026-05-08 17:56 53.32008 -8.81442 37116 ft 502 kts 109°
2026-05-08 17:57 53.30246 -8.70120 37102 ft 502 kts 109°
2026-05-08 17:57 53.28487 -8.58897 37113 ft 502 kts 109°
2026-05-08 17:58 53.26707 -8.47615 37105 ft 502 kts 109°
2026-05-08 17:58 53.24917 -8.36347 37112 ft 502 kts 109°
2026-05-08 17:59 53.23117 -8.25090 37113 ft 502 kts 109°
2026-05-08 17:59 53.21302 -8.13817 37109 ft 502 kts 109°
2026-05-08 18:00 53.19787 -8.04467 37108 ft 502 kts 109°
2026-05-08 18:00 53.16732 -7.85766 37110 ft 502 kts 109°
2026-05-08 18:01 53.14880 -7.74528 37114 ft 503 kts 110°
2026-05-08 18:01 53.13016 -7.63295 37098 ft 503 kts 109°
2026-05-08 18:02 53.11458 -7.53959 37105 ft 503 kts 109°
2026-05-08 18:02 53.09256 -7.40843 37102 ft 503 kts 110°
2026-05-08 18:03 53.07679 -7.31518 37108 ft 504 kts 110°
2026-05-08 18:03 53.05461 -7.18483 37103 ft 504 kts 110°
2026-05-08 18:04 53.03855 -7.09101 37067 ft 504 kts 110°
2026-05-08 18:04 53.01932 -6.97929 37093 ft 502 kts 110°
2026-05-08 18:05 53.00002 -6.86792 37098 ft 501 kts 110°
2026-05-08 18:05 52.98065 -6.75692 37099 ft 500 kts 110°
2026-05-08 18:06 52.96118 -6.64592 37096 ft 500 kts 110°
2026-05-08 18:06 52.94175 -6.53594 37090 ft 500 kts 110°
2026-05-08 18:07 52.92213 -6.42549 37101 ft 500 kts 110°
2026-05-08 18:07 52.90239 -6.31504 37101 ft 500 kts 110°
2026-05-08 18:08 52.88254 -6.20466 37099 ft 499 kts 111°
2026-05-08 18:08 52.86261 -6.09449 37098 ft 500 kts 111°
2026-05-08 18:09 52.84258 -5.98447 37100 ft 499 kts 110°
2026-05-08 18:09 52.82256 -5.87512 37096 ft 499 kts 110°
2026-05-08 18:10 52.80235 -5.76538 37090 ft 499 kts 110°
2026-05-08 18:10 52.78202 -5.65558 37090 ft 500 kts 110°
2026-05-08 18:11 52.76160 -5.54596 37090 ft 500 kts 111°
2026-05-08 18:11 52.73566 -5.44040 37082 ft 494 kts 121°
2026-05-08 18:12 52.70376 -5.33994 37090 ft 493 kts 122°
2026-05-08 18:12 52.67179 -5.23973 37084 ft 494 kts 122°
2026-05-08 18:13 52.63997 -5.13918 37066 ft 494 kts 121°
2026-05-08 18:13 52.60851 -5.03952 37074 ft 493 kts 121°
2026-05-08 18:14 52.57685 -4.93956 37069 ft 493 kts 121°
2026-05-08 18:14 52.54512 -4.83981 37077 ft 492 kts 121°
2026-05-08 18:15 52.51329 -4.74024 37072 ft 492 kts 121°
2026-05-08 18:15 52.48134 -4.64072 37071 ft 492 kts 121°
2026-05-08 18:16 52.44933 -4.54137 37067 ft 492 kts 121°
2026-05-08 18:16 52.41722 -4.44214 37049 ft 492 kts 121°
2026-05-08 18:17 52.38527 -4.34381 37060 ft 492 kts 121°
2026-05-08 18:17 52.35300 -4.24487 37061 ft 493 kts 121°
2026-05-08 18:18 52.32062 -4.14599 37061 ft 493 kts 121°
2026-05-08 18:18 52.28806 -4.04699 37062 ft 494 kts 122°
2026-05-08 18:19 52.25543 -3.94813 37039 ft 495 kts 122°
2026-05-08 18:19 52.22269 -3.84936 37062 ft 495 kts 121°
2026-05-08 18:20 52.18987 -3.75073 37061 ft 495 kts 121°
2026-05-08 18:20 52.15700 -3.65234 37065 ft 494 kts 122°
2026-05-08 18:21 52.12409 -3.55422 37062 ft 494 kts 122°
2026-05-08 18:21 52.09130 -3.45686 37066 ft 494 kts 122°
2026-05-08 18:22 52.05822 -3.35899 37063 ft 493 kts 122°
2026-05-08 18:22 52.02510 -3.26141 37066 ft 493 kts 122°
2026-05-08 18:23 51.99192 -3.16403 37078 ft 492 kts 122°
2026-05-08 18:23 51.95866 -3.06679 37096 ft 492 kts 122°
2026-05-08 18:24 51.92537 -2.96986 37110 ft 492 kts 122°
2026-05-08 18:24 51.89221 -2.87367 37100 ft 492 kts 122°
2026-05-08 18:25 51.85883 -2.77720 37067 ft 491 kts 122°
2026-05-08 18:25 51.82533 -2.68076 37075 ft 492 kts 122°
2026-05-08 18:26 51.79172 -2.58437 37070 ft 492 kts 122°
2026-05-08 18:26 51.75803 -2.48811 37066 ft 492 kts 122°
2026-05-08 18:27 51.73001 -2.40837 37066 ft 491 kts 122°
2026-05-08 18:27 51.69045 -2.29615 37084 ft 492 kts 122°
2026-05-08 18:28 51.65670 -2.20084 37083 ft 493 kts 122°
2026-05-08 18:28 51.62264 -2.10500 37064 ft 494 kts 122°
2026-05-08 18:29 51.58847 -2.00919 37082 ft 494 kts 122°
2026-05-08 18:29 51.55418 -1.91345 37057 ft 494 kts 122°
2026-05-08 18:30 51.51985 -1.81790 37072 ft 494 kts 122°
2026-05-08 18:30 51.48541 -1.72236 37073 ft 494 kts 122°
2026-05-08 18:31 51.45304 -1.62497 37071 ft 495 kts 117°
2026-05-08 18:31 51.42409 -1.52466 37075 ft 496 kts 116°
2026-05-08 18:32 51.39497 -1.42457 37066 ft 496 kts 117°
2026-05-08 18:32 51.36565 -1.32525 37068 ft 496 kts 117°
2026-05-08 18:33 51.33542 -1.22582 37074 ft 495 kts 121°
2026-05-08 18:33 51.29721 -1.13477 37070 ft 492 kts 130°
2026-05-08 18:34 51.25543 -1.04833 37078 ft 492 kts 129°
2026-05-08 18:34 51.21417 -0.96104 37057 ft 488 kts 129°
2026-05-08 18:35 51.19381 -0.91802 36762 ft 485 kts 129°
2026-05-08 18:35 51.17345 -0.87514 36450 ft 485 kts 129°
2026-05-08 18:35 51.15306 -0.83227 36171 ft 485 kts 129°
2026-05-08 18:35 51.13293 -0.79004 35911 ft 484 kts 129°
2026-05-08 18:36 51.11257 -0.74738 35633 ft 483 kts 129°
2026-05-08 18:36 51.09229 -0.70492 35348 ft 482 kts 129°
2026-05-08 18:36 51.07192 -0.66237 34984 ft 482 kts 129°
2026-05-08 18:36 51.05278 -0.62191 34649 ft 489 kts 127°
2026-05-08 18:37 51.03491 -0.57829 34283 ft 492 kts 123°
2026-05-08 18:37 51.01701 -0.53181 33847 ft 493 kts 122°
2026-05-08 18:37 50.99927 -0.48531 33332 ft 490 kts 122°
2026-05-08 18:37 50.98161 -0.43918 32869 ft 488 kts 123°
2026-05-08 18:38 50.96393 -0.39334 32396 ft 485 kts 123°
2026-05-08 18:38 50.94654 -0.34859 31935 ft 480 kts 123°
2026-05-08 18:38 50.92906 -0.30384 31472 ft 475 kts 123°
2026-05-08 18:38 50.91173 -0.25960 31021 ft 470 kts 123°
2026-05-08 18:39 50.89456 -0.21588 30589 ft 465 kts 123°
2026-05-08 18:39 50.87762 -0.17283 30125 ft 461 kts 124°
2026-05-08 18:39 50.86074 -0.12996 29612 ft 456 kts 123°
2026-05-08 18:39 50.84399 -0.08750 29113 ft 452 kts 123°
2026-05-08 18:40 50.82741 -0.04550 28628 ft 448 kts 123°
2026-05-08 18:40 50.81094 -0.00383 28139 ft 444 kts 123°
2026-05-08 18:40 50.79463 0.03733 27656 ft 440 kts 123°
2026-05-08 18:40 50.77825 0.07800 27201 ft 436 kts 126°
2026-05-08 18:41 50.75972 0.11565 26708 ft 431 kts 133°
2026-05-08 18:41 50.73911 0.14967 26267 ft 426 kts 138°
2026-05-08 18:41 50.71666 0.17986 25822 ft 421 kts 143°
2026-05-08 18:41 50.69382 0.20849 25393 ft 418 kts 143°
2026-05-08 18:42 50.67140 0.23661 24953 ft 415 kts 143°
2026-05-08 18:42 50.64893 0.26496 24535 ft 412 kts 142°
2026-05-08 18:42 50.62672 0.29315 24173 ft 409 kts 142°
2026-05-08 18:42 50.60442 0.32149 24104 ft 413 kts 142°
2026-05-08 18:43 50.58203 0.34991 24071 ft 411 kts 142°
2026-05-08 18:43 50.55989 0.37806 24073 ft 408 kts 142°
2026-05-08 18:43 50.53786 0.40610 24079 ft 407 kts 142°
2026-05-08 18:43 50.51587 0.43406 24086 ft 407 kts 142°
2026-05-08 18:44 50.49381 0.46207 24078 ft 407 kts 142°
2026-05-08 18:44 50.47169 0.49008 24076 ft 408 kts 142°
2026-05-08 18:44 50.44957 0.51805 24077 ft 409 kts 142°
2026-05-08 18:44 50.42728 0.54618 24104 ft 416 kts 142°
2026-05-08 18:45 50.40475 0.57458 24070 ft 414 kts 142°
2026-05-08 18:45 50.38264 0.60244 24076 ft 412 kts 142°
2026-05-08 18:45 50.36038 0.63044 24077 ft 409 kts 142°
2026-05-08 18:45 50.33817 0.65836 24067 ft 407 kts 142°
2026-05-08 18:46 50.31614 0.68606 23868 ft 406 kts 142°
2026-05-08 18:46 50.29411 0.71375 23479 ft 406 kts 142°
2026-05-08 18:46 50.27206 0.74144 23133 ft 404 kts 142°
2026-05-08 18:46 50.25025 0.76881 22863 ft 400 kts 142°
2026-05-08 18:47 50.22873 0.79580 22556 ft 398 kts 142°
2026-05-08 18:47 50.20708 0.82289 22163 ft 398 kts 142°
2026-05-08 18:47 50.18552 0.84981 21901 ft 395 kts 142°
2026-05-08 18:47 50.16418 0.87637 21681 ft 390 kts 142°
2026-05-08 18:48 50.14307 0.90259 21425 ft 386 kts 142°
2026-05-08 18:48 50.12205 0.92866 21077 ft 386 kts 142°
2026-05-08 18:48 50.10812 0.94593 20829 ft 387 kts 142°
2026-05-08 18:48 50.08713 0.97194 20555 ft 384 kts 142°
2026-05-08 18:49 50.05952 1.00591 20248 ft 379 kts 144°
2026-05-08 18:49 50.03745 1.02757 19958 ft 374 kts 153°
2026-05-08 18:49 50.01415 1.04548 19700 ft 372 kts 156°
2026-05-08 18:49 49.99833 1.05672 19552 ft 369 kts 156°
2026-05-08 18:50 49.96747 1.07835 19243 ft 365 kts 156°
2026-05-08 18:50 49.95187 1.08941 19060 ft 365 kts 156°
2026-05-08 18:50 49.92888 1.10599 18779 ft 364 kts 155°
2026-05-08 18:50 49.90631 1.12249 18515 ft 363 kts 155°
2026-05-08 18:51 49.88357 1.13930 18287 ft 360 kts 155°
2026-05-08 18:51 49.86106 1.15604 18016 ft 358 kts 155°
2026-05-08 18:51 49.83874 1.17269 17795 ft 354 kts 155°
2026-05-08 18:51 49.81653 1.18926 17474 ft 354 kts 155°
2026-05-08 18:52 49.79436 1.20581 17178 ft 353 kts 155°
2026-05-08 18:52 49.77223 1.22229 16854 ft 353 kts 155°
2026-05-08 18:52 49.75007 1.23879 16539 ft 354 kts 155°
2026-05-08 18:52 49.72792 1.25528 16270 ft 352 kts 155°
2026-05-08 18:53 49.70583 1.27172 15993 ft 352 kts 155°
2026-05-08 18:53 49.68378 1.28810 15737 ft 350 kts 155°
2026-05-08 18:53 49.66214 1.30415 15522 ft 349 kts 155°
2026-05-08 18:53 49.64026 1.32035 15260 ft 348 kts 155°
2026-05-08 18:54 49.61840 1.33653 14998 ft 348 kts 155°
2026-05-08 18:54 49.59659 1.35267 14745 ft 347 kts 155°
2026-05-08 18:54 49.57487 1.36872 14540 ft 345 kts 155°
2026-05-08 18:54 49.55327 1.38468 14335 ft 343 kts 155°
2026-05-08 18:55 49.51031 1.41636 13793 ft 341 kts 155°
2026-05-08 18:55 49.48901 1.43204 13445 ft 337 kts 156°
2026-05-08 18:55 49.46798 1.44749 13087 ft 333 kts 155°
2026-05-08 18:56 49.44745 1.46259 12719 ft 320 kts 155°
2026-05-08 18:56 49.42782 1.47701 12357 ft 306 kts 155°
2026-05-08 18:56 49.40892 1.49086 12001 ft 296 kts 155°
2026-05-08 18:56 49.39040 1.50438 11667 ft 295 kts 155°
2026-05-08 18:57 49.37167 1.51794 11366 ft 300 kts 155°
2026-05-08 18:57 49.35268 1.53163 11042 ft 304 kts 155°
2026-05-08 18:57 49.33348 1.54541 10738 ft 303 kts 155°
2026-05-08 18:57 49.31440 1.55899 10412 ft 301 kts 155°
2026-05-08 18:58 49.29544 1.57234 10136 ft 298 kts 155°
2026-05-08 18:58 49.27699 1.58531 10076 ft 286 kts 156°
2026-05-08 18:58 49.25931 1.59792 10056 ft 282 kts 155°
2026-05-08 18:58 49.24130 1.61083 10069 ft 289 kts 155°
2026-05-08 18:59 49.22284 1.62407 10069 ft 295 kts 155°
2026-05-08 18:59 49.20426 1.63741 10060 ft 294 kts 155°
2026-05-08 18:59 49.18580 1.65068 10041 ft 292 kts 155°
2026-05-08 18:59 49.16736 1.66396 9914 ft 295 kts 155°
2026-05-08 19:00 49.14865 1.67740 9565 ft 298 kts 155°
2026-05-08 19:00 49.12993 1.69080 9218 ft 296 kts 155°
2026-05-08 19:00 49.11142 1.70401 8875 ft 289 kts 155°
2026-05-08 19:00 49.09349 1.71674 8511 ft 279 kts 155°
2026-05-08 19:01 49.07606 1.72908 8163 ft 274 kts 155°
2026-05-08 19:01 49.06029 1.74535 7807 ft 279 kts 132°
2026-05-08 19:01 49.05061 1.77110 7511 ft 283 kts 109°
2026-05-08 19:01 49.04567 1.80010 7204 ft 281 kts 103°
2026-05-08 19:02 49.04180 1.82914 6892 ft 279 kts 102°
2026-05-08 19:02 49.03813 1.85801 6575 ft 276 kts 102°
2026-05-08 19:02 49.03452 1.88668 6243 ft 274 kts 102°
2026-05-08 19:02 49.03097 1.91497 5904 ft 270 kts 101°
2026-05-08 19:03 49.02748 1.94218 5550 ft 259 kts 101°
2026-05-08 19:03 49.02404 1.96850 5202 ft 247 kts 101°
2026-05-08 19:03 49.02068 1.99364 4847 ft 237 kts 101°
2026-05-08 19:03 49.01734 2.01787 4509 ft 232 kts 101°
2026-05-08 19:04 49.01399 2.04187 4186 ft 232 kts 101°
2026-05-08 19:04 49.01063 2.06555 4058 ft 227 kts 102°
2026-05-08 19:04 49.00723 2.08926 4014 ft 230 kts 102°
2026-05-08 19:04 49.00386 2.11296 4002 ft 225 kts 99°
2026-05-08 19:05 49.00349 2.13651 4002 ft 221 kts 84°
2026-05-08 19:05 49.00509 2.15918 3978 ft 208 kts 85°
2026-05-08 19:05 49.00621 2.18029 3967 ft 193 kts 85°
2026-05-08 19:05 49.00728 2.20083 4041 ft 193 kts 85°
2026-05-08 19:06 49.00834 2.22064 3993 ft 184 kts 85°
2026-05-08 19:06 49.00937 2.23987 4004 ft 182 kts 85°
2026-05-08 19:06 49.01043 2.25956 3788 ft 188 kts 85°
2026-05-08 19:06 49.01148 2.27903 3546 ft 185 kts 85°
2026-05-08 19:07 49.01251 2.29830 3293 ft 180 kts 85°
2026-05-08 19:07 49.01354 2.31733 3067 ft 182 kts 85°
2026-05-08 19:07 49.01458 2.33655 2816 ft 182 kts 85°
2026-05-08 19:07 49.01560 2.35567 2580 ft 179 kts 85°
2026-05-08 19:08 49.01661 2.37443 2337 ft 175 kts 85°
2026-05-08 19:08 49.01757 2.39221 2133 ft 163 kts 85°
2026-05-08 19:08 49.01847 2.40909 1894 ft 157 kts 84°
2026-05-08 19:08 49.01936 2.42547 1695 ft 155 kts 85°
2026-05-08 19:09 49.02023 2.44179 1473 ft 151 kts 85°
2026-05-08 19:09 49.02106 2.45722 1259 ft 143 kts 84°
2026-05-08 19:09 49.02190 2.47211 998 ft 140 kts 84°
2026-05-08 19:09 49.02273 2.48727 889 ft 149 kts 83°
2026-05-08 19:10 49.02359 2.50345 716 ft 157 kts 83°
2026-05-08 19:10 49.02444 2.52008 479 ft 159 kts 83°
2026-05-08 19:10 49.02539 2.53618 367 ft 143 kts 83°
2026-05-08 19:10 49.02598 2.54830 359 ft 50 kts 86°
2026-05-08 19:11 49.02570 2.55321 368 ft 42 kts 117°
2026-05-08 19:11 49.02487 2.55571 366 ft 8 kts 111°
2026-05-08 19:11 49.02465 2.55604 368 ft 5 kts 161°
2026-05-08 19:11 49.02424 2.55612 361 ft 6 kts 173°
2026-05-08 19:12 49.02379 2.55618 362 ft 7 kts 175°
2026-05-08 19:12 49.02323 2.55625 366 ft 10 kts 175°
2026-05-08 19:12 49.02208 2.55637 365 ft 24 kts 175°
2026-05-08 19:12 49.02126 2.55648 364 ft 2 kts 175°
2026-05-08 19:13 49.02118 2.55650 361 ft 0 kts 174°
2026-05-08 19:13 49.02107 2.55654 363 ft 6 kts 161°
2026-05-08 19:13 49.02077 2.55771 365 ft 18 kts 88°
2026-05-08 19:13 49.02086 2.55935 360 ft 15 kts 84°
2026-05-08 19:14 49.02095 2.56088 361 ft 15 kts 85°
2026-05-08 19:14 49.02087 2.56239 368 ft 15 kts 111°
2026-05-08 19:14 49.02035 2.56372 366 ft 15 kts 112°
2026-05-08 19:14 49.02028 2.56525 364 ft 15 kts 87°
2026-05-08 19:15 49.02038 2.56679 361 ft 15 kts 84°
2026-05-08 19:15 49.02045 2.56833 365 ft 15 kts 84°
2026-05-08 19:15 49.02053 2.56987 359 ft 15 kts 84°
2026-05-08 19:15 49.02062 2.57142 366 ft 15 kts 85°
2026-05-08 19:16 49.02069 2.57296 360 ft 15 kts 85°
2026-05-08 19:16 49.02077 2.57450 366 ft 15 kts 86°
2026-05-08 19:16 49.02085 2.57605 363 ft 15 kts 84°
2026-05-08 19:16 49.02086 2.57759 360 ft 15 kts 95°
2026-05-08 19:17 49.02057 2.57907 361 ft 15 kts 117°
2026-05-08 19:17 49.01992 2.58026 368 ft 15 kts 139°
2026-05-08 19:17 49.01903 2.58098 365 ft 15 kts 161°
2026-05-08 19:17 49.01802 2.58124 359 ft 15 kts 174°
2026-05-08 19:18 49.01701 2.58140 363 ft 15 kts 174°
2026-05-08 19:18 49.01599 2.58150 366 ft 15 kts 176°
2026-05-08 19:18 49.01497 2.58162 361 ft 15 kts 174°
2026-05-08 19:18 49.01395 2.58176 359 ft 15 kts 175°
2026-05-08 19:19 49.01313 2.58188 364 ft 11 kts 174°
2026-05-08 19:19 49.01234 2.58199 364 ft 11 kts 175°
2026-05-08 19:19 49.01153 2.58209 365 ft 12 kts 175°
2026-05-08 19:19 49.01071 2.58219 361 ft 12 kts 175°
2026-05-08 19:20 49.00989 2.58229 365 ft 12 kts 175°
2026-05-08 19:20 49.00961 2.58233 362 ft 12 kts 175°
2026-05-08 19:20 49.00839 2.58311 367 ft 12 kts 111°
2026-05-08 19:20 49.00836 2.58434 359 ft 10 kts 86°
2026-05-08 19:21 49.00840 2.58517 365 ft 6 kts 86°
2026-05-08 19:21 49.00841 2.58549 365 ft 1 kts 86°
2026-05-08 19:21 49.00842 2.58562 364 ft 2 kts 86°
2026-05-08 19:21 49.00842 2.58575 363 ft 0 kts 86°
2026-05-08 19:22 49.00842 2.58578 362 ft 1 kts 86°
2026-05-08 19:22 49.00843 2.58597 362 ft 3 kts 87°
2026-05-08 19:22 49.00842 2.58640 361 ft 6 kts 99°
2026-05-08 19:22 49.00798 2.58683 360 ft 9 kts 167°
2026-05-08 19:23 49.00738 2.58693 365 ft 9 kts 175°
2026-05-08 19:23 49.00677 2.58702 363 ft 9 kts 174°
2026-05-08 19:23 49.00616 2.58712 363 ft 9 kts 178°
2026-05-08 19:23 49.00553 2.58716 364 ft 9 kts 175°
2026-05-08 19:24 49.00488 2.58725 365 ft 9 kts 175°
2026-05-08 19:24 49.00422 2.58732 364 ft 10 kts 176°
2026-05-08 19:24 49.00354 2.58740 365 ft 10 kts 175°
2026-05-08 19:24 49.00296 2.58721 368 ft 9 kts 234°
2026-05-08 19:25 49.00287 2.58658 365 ft 1 kts 264°
2026-05-08 19:25 49.00286 2.58640 363 ft 2 kts 266°
2026-05-08 19:25 49.00285 2.58620 361 ft 1 kts 266°
2026-05-08 19:25 49.00285 2.58619 361 ft 0 kts 266°